Lid_Strength_Index
5 5 6 7 9 7 9 9 11 9 8 6 5 6 5 5 4 4 4 4 3 3 3 2 2 2 2 2 2 2 1 1
6 5 5 7 6 9 9 13 14 11 11 10 7 7 6 6 5 4 3 3 3 3 3 2 2 2 2 2 2 2 1 1
6 7 8 8 8 8 8 9 12 13 11 6 7 6 6 5 4 4 3 3 3 3 2 2 2 2 2 2 2 2 1 1
8 6 5 6 8 8 10 11 9 10 10 5 5 5 5 4 4 3 3 3 3 3 3 2 2 2 2 2 2 2 1 1
10 8 6 7 7 7 7 8 10 11 10 5 5 5 5 5 4 4 3 3 3 3 3 3 2 2 2 2 2 2 1 2
11 9 7 8 8 7 8 10 10 9 8 7 7 6 5 5 4 3 3 3 3 3 3 3 2 2 2 2 2 1 1 2
8 7 7 8 8 8 8 8 10 8 8 7 6 6 5 4 4 4 4 4 3 3 3 3 3 2 2 2 2 1 2 2
9 7 8 8 7 7 7 8 8 7 8 5 4 4 5 5 4 4 4 3 4 3 3 3 3 3 2 2 2 1 2 2
11 8 8 10 8 7 7 7 7 9 6 5 5 5 5 4 4 4 4 3 3 3 3 3 3 2 2 2 2 2 2 2
11 9 14 8 6 6 7 6 6 6 5 5 5 4 4 3 4 4 3 3 3 2 3 2 2 2 2 2 2 2 2 2
12 12 9 8 7 7 7 7 5 6 5 5 4 4 4 3 3 3 3 3 2 2 2 2 2 2 2 2 2 2 2 2
10 13 14 9 6 5 6 10 6 6 6 6 5 8 6 3 3 3 2 2 2 2 2 2 2 2 2 3 3 3 2 2
11 12 10 6 6 5 12 10 6 6 6 5 6 6 4 3 3 2 2 2 2 1 3 3 2 2 3 3 3 2 2 2
11 13 14 6 7 10 7 5 5 5 5 5 5 4 4 4 3 2 3 2 2 3 3 2 2 2 3 3 2 2 2 2
9 9 7 5 6 5 5 5 6 5 5 4 4 4 4 4 3 3 3 2 2 3 3 2 2 2 3 3 2 2 2 2
9 8 7 6 5 4 4 5 5 5 5 5 5 4 4 4 3 3 3 2 3 3 3 3 2 2 2 2 2 2 2 2
9 8 7 6 5 5 5 4 5 4 5 5 5 6 5 5 4 4 4 3 3 4 4 3 3 2 2 2 2 3 2 2
12 9 8 7 5 4 5 5 4 5 5 4 5 5 4 5 4 4 4 3 4 4 4 3 3 2 2 2 2 2 3 3
8 7 6 5 4 4 4 4 3 4 4 5 4 5 5 5 5 5 3 3 3 3 3 3 3 2 2 2 2 2 3 2